Preview of NWS' New Version of Forecast
This preview is not operational and should not be used for support decisions.
Latest weather observations around

Boyd Deep Canyon Reserve (UCNRS) (UCDE)

Using English Units (Switch to International System of Units)
Date/ Time (PDT) Wind (mph) Vis. (mi) Weather Sky Cond. Temp (°F) Rel. Humidity Wind Chill (°F) Heat Index (°F) Pressure Precip. (in)
Air Dwpt 6 hour Altimeter (inHg) Sea level (inHg) 1 hr 3 hr 6 hr
Max Min
Apr 20 17:40 NW 5   Clear   85 20     9%   82 29.93        
Apr 20 17:30 SSE 6   Clear   85 20     9%   82 29.93        
Apr 20 17:20 S 4   Clear   86 20     9%   82 29.93        
Apr 20 17:10 SW 3   Clear   86 21     9%   82 29.93        
Apr 20 17:00 SSW 2   Clear   86 20     9%   82 29.93        
Apr 20 16:50 NW 3   Clear   84 21     10%   80 29.93        
Apr 20 16:40 ENE 2   Clear   84 21     10%   80 29.93        
Apr 20 16:30 NE 5   Clear   84 21     10%   81 29.93        
Apr 20 16:20 ENE 5   Clear   83 21     10%   80 29.93        
Apr 20 16:10 NE 5   Clear   83 21     10%   80 29.94        
Apr 20 16:00 ENE 6   Clear   83 23     11%   80 29.94        
Apr 20 15:50 NE 6   Clear   82 23     11%   80 29.94        
Apr 20 15:40 NE 4   Clear   82 22     11%   79 29.94        
Apr 20 15:30 SW 5   Clear   84 24     11%   81 29.95        
Apr 20 15:20 S 4   Clear   84 24     11%   81 29.95        
Apr 20 15:10 S 2   Clear   83 25     12%   80 29.96        
Apr 20 15:00 WNW 2   Clear   81 25     13%   79 29.96        
Apr 20 14:50 N 4   Clear   81 25     13%   79 29.96        
Apr 20 14:40 NNE 3   Clear   80 25     13%   79 29.97        
Apr 20 14:30 NW 4   Clear   80 25     13%   79 29.97        
Apr 20 14:20 N 3   Clear   80 26     14%   78 29.97        
Apr 20 14:10 N 5   Clear   80 26     14%   78 29.97        
Apr 20 14:00 NNE 5   Clear   79 26     14%   78 29.98        
Apr 20 13:20 NNW 4   Clear   78 28     16%   76 29.99        
Apr 20 13:10 N 8   Clear   78 29     17%   76 29.98        
Apr 20 12:40 E 3   Clear   77 26     15%   75 29.99        
Apr 20 12:30 NNE 3   Clear   77 30     18%   75 29.99        
Apr 20 12:20 NE 2   Clear   74 32     21%   72 30        
Apr 20 12:10 N 4   Clear   74 33     22%   72 30        
Apr 20 12:00 N 7   Clear   73 33     23%   71 30        
Apr 20 11:50 NNE 6   Clear   73 32     22%   71 30        
Apr 20 11:40 NNE 2   Clear   72 33     24%   70 30        
Apr 20 11:30 N 5   Clear   71 33     25%   69 30.01        
Apr 20 11:20 NNW 4   Clear   70 34     26%   68 30.01        
Apr 20 11:10 N 6   Clear   69 34     27%     30        
Apr 20 11:00 N 6   Clear   68 34     28%     30        
Apr 20 10:50 NNW 5   Clear   68 34     28%     30        
Apr 20 10:40 N 6   Clear   68 34     28%     30.01        
Apr 20 10:30 N 5   Clear   68 32     27%     30.01        
Apr 20 10:20 N 4   Clear   67 32     27%     30.01        
Apr 20 10:10 NNW 2   Clear   66 33     29%     30.01        
Apr 20 10:00 N 5   Clear   65 33     30%     30.01        
Apr 20 09:50 N 7   Clear   66 33     29%     30.01        
Apr 20 09:40 N 2   Clear   66 31     27%     30        
Apr 20 09:30 N 3   Clear   65 31     28%     30        
Apr 20 09:20 N 2   Clear   65 30     27%     30        
Apr 20 09:10 N 3   Clear   64 30     28%     30        
Apr 20 09:00 NNE 3   Clear   63 31     30%     29.99        
Apr 20 08:50 NNE 3   Clear   64 32     30%     29.99        
Apr 20 08:40 NNE 1   Clear   63 31     30%     29.99        
Apr 20 08:30 NNE 1   Clear   62 31     31%     30        
Apr 20 08:20 NE 2   Clear   62 32     32%     30        
Apr 20 08:10 E 2   Clear   60 33     36%     30        
Apr 20 08:00 NE 3   Clear   60 33     36%     30        
Apr 20 07:30 N 1   Clear   57 34     42%     30.01        
Apr 20 07:20 NE 2   Clear   58 34     40%     30        
Apr 20 07:10 SSW 2   Clear   54 34     46%     30        
Apr 20 07:00 SW 4   Clear   53 34     49%     29.99        
Apr 20 06:50 ENE 3   Clear   52 34     50%     29.99        
Apr 20 06:40 WNW 4   Clear   52 35     51%     29.99        
Apr 20 06:30 SSE 2   Clear   52 35     53%     29.99        
Apr 20 06:20 SSW 3   Clear   51 35     53%     29.99        
Apr 20 06:10 SSW 2   Clear   51 35     54%     29.99        
Apr 20 06:00 Calm   Clear   52 35     53%     29.98        
Apr 20 05:50 ENE 3   Clear   53 36     52%     29.98        
Apr 20 05:40 E 3   Clear   53 36     53%     29.97        
Apr 20 05:30 ENE 3   Clear   52 36     53%     29.97        
Apr 20 05:20 E 3   Clear   53 35     51%     29.96        
Apr 20 05:10 N 5   Clear   57 30     36%     29.96        
Apr 20 05:00 S 5   Clear   60 25     26%     29.95        
Apr 20 04:50 S 9   Clear   60 25     26%     29.94        
Apr 20 04:20 S 14   Clear   60 27     29%     29.94        
Apr 20 04:10 S 12   Clear   59 27     30%     29.94        
Apr 20 04:00 SSW 4   Clear   57 30     36%     29.94        
Apr 20 03:50 S 6   Clear   58 29     33%     29.94        
Apr 20 03:40 SSW 4   Clear   57 30     35%     29.94        
Apr 20 03:30 ENE 4   Clear   54 34     46%     29.94        
Apr 20 03:20 ENE 5   Clear   54 35     49%     29.93        
Apr 20 03:10 NE 5   Clear   55 35     48%     29.93        
Apr 20 03:00 WNW 8   Clear   58 31     35%     29.92        
Apr 20 02:50     Clear   60 27     28%     29.91        
Apr 20 02:40     Clear   60 27     28%     29.91        
Apr 20 02:30     Clear   60 26     27%     29.9        
Apr 20 02:20     Clear   60 25     26%     29.9        
Apr 20 02:10 S 14   Clear   60 24     24%     29.9        
Apr 20 02:00 S 7   Clear   58 26     29%     29.9        
Apr 20 01:50 W 2   Clear   54 33     46%     29.9        
Apr 20 01:40 NE 2   Clear   54 33     46%     29.91        
Apr 20 01:30 SE 1   Clear   54 34     46%     29.91        
Apr 20 01:20 SE 1   Clear   55 34     45%     29.91        
Apr 20 01:10 Calm   Clear   55 34     45%     29.91        
Apr 20 01:00 SE 1   Clear   55 34     44%     29.91        
Apr 20 00:50 ESE 1   Clear   56 34     43%     29.9        
Apr 20 00:40 N 4   Clear   56 33     42%     29.9        
Apr 20 00:30 ENE 4   Clear   56 33     41%     29.9        
Apr 20 00:20 NNE 4   Clear   59 29     32%     29.9        
Apr 20 00:10 S 10   Clear   61 24     24%     29.89        
Apr 20 00:00 S 14   Clear   60 24     25%     29.89        
Apr 19 23:40 S 13   Clear   60 25     25%              
Apr 19 23:30 S 14   Clear   61 24     24%     29.89        
Apr 19 23:20 S 12   Clear   60 25     25%     29.89        
Apr 19 23:10 S 15   Clear   60 24     25%              
Apr 19 23:00     Clear   60 25     26%     29.89        
Apr 19 22:50 S 14   Clear   60 25     26%     29.89        
Apr 19 22:40     Clear   60 26     27%     29.89        
Apr 19 22:30     Clear   60 26     27%     29.89        
Apr 19 22:20 S 14   Clear   60 27     28%     29.88        
Apr 19 22:10     Clear   60 27     28%              
Apr 19 22:00     Clear   60 27     29%     29.88        
Apr 19 21:50 S 13   Clear   60 28     30%     29.89        
Apr 19 21:40     Clear   60 28     30%     29.89        
Apr 19 21:30     Clear   60 30     32%     29.89        
Apr 19 21:20 S 16   Clear   60 29     31%     29.88        
Apr 19 21:10 S 12   Clear   60 29     31%     29.88        
Apr 19 21:00 S 15   Clear   60 30     32%     29.88        
Apr 19 20:50     Clear   60 29     30%     29.87        
Apr 19 20:40 SW 15   Clear   61 28     29%     29.87        
Apr 19 20:30 SW 14   Clear   61 29     30%     29.87        
Apr 19 20:20 SW 12   Clear   61 28     28%     29.87        
Apr 19 20:10 SSW 10   Clear   61 28     29%     29.87        
Apr 19 19:40     Clear   61 30     31%     29.86        
Apr 19 19:30     Clear   61 30     30%     29.85        
Apr 19 19:20 SSW 13   Clear   62 30     30%     29.84        
Apr 19 19:10 S 12   Clear   62 28     27%     29.84        
Apr 19 19:00 S 12   Clear   62 28     27%     29.83        
Apr 19 18:50     Clear   63 27     26%     29.82        
Apr 19 18:20 SSW 13   Clear   64 28     26%     29.83        
Apr 19 18:10 SW 13   Clear   65 29     26%     29.83        
Apr 19 18:00     Clear   65 29     26%     29.83        
Apr 19 17:40 SW 14   Clear   66 28     24%     29.84        
Apr 19 17:30 SW 12   Clear   66 28     24%     29.84        
Apr 19 17:20 SW 10   Clear   67 27     22%     29.84        
Apr 19 17:10 SW 10   Clear   67 27     22%     29.84        
Apr 19 17:00 SSW 11   Clear   67 27     22%     29.84        
Apr 19 16:50 S 14   Clear   67 28     23%     29.84        
Apr 19 16:40     Clear   67 28     23%     29.84        
Apr 19 16:30     Clear   68 27     22%     29.83        
Apr 19 16:20     Clear   67 28     23%     29.83        
Apr 19 16:10     Clear   67 28     23%     29.83        
Apr 19 16:00     Clear   67 28     23%     29.83        
Apr 19 15:50     Clear   68 27     22%     29.83        
Apr 19 15:40     Clear   68 28     22%     29.84        
Apr 19 15:30 S 12   Clear   69 27     21%     29.84        
Apr 19 15:20 SSW 12   Clear   69 27     21%     29.84        
Apr 19 15:10     Clear   68 27     21%     29.85        
Apr 19 15:00     Clear   69 27     21%     29.85        
Apr 19 14:50     Clear   69 26     20%     29.85        
Apr 19 14:40 S 16   Clear   69 26     20%     29.85        
Apr 19 14:30 SSW 16   Clear   69 25     19%              
Apr 19 14:20 SSW 10   Clear   70 22     16%     29.85        
Apr 19 14:10 S 4   Clear   69 21     16%     29.85        
Apr 19 14:00 SSW 10   Clear   69 21     16%     29.85        
Apr 19 13:50 S 5   Clear   69 22     17%              
Apr 19 13:40 SW 8   Clear   67 21     17%     29.85        
Apr 19 13:30 SW 9   Clear   67 21     17%     29.86        
Apr 19 13:20 SSW 13   Clear   67 22     18%     29.86        
Apr 19 13:10 SSW 12   Clear   67 21     17%     29.86        
Apr 19 13:00 SSW 9   Clear   66 22     18%     29.86        
Apr 19 12:20 S 14   Clear   64 27     24%              
Apr 19 12:10 S 13   Clear   64 29     27%              
Apr 19 12:00 S 16   Clear   63 30     28%              
Apr 19 11:50     Clear   64 29     27%              
Apr 19 11:40     Clear   62 30     29%              
Apr 19 11:30     Clear   63 29     28%              
Apr 19 11:20     Clear   62 29     28%              
Apr 19 11:10     Clear   62 29     28%     29.89        
Apr 19 11:00     Clear   62 27     27%     29.88        
Apr 19 10:50     Clear   61 28     28%              
Apr 19 10:40     Clear   61 29     29%     29.87        
Apr 19 10:30     Clear   61 28     29%     29.89        
Apr 19 10:20 SSW 17   Clear   61 27     28%     29.9        
Apr 19 10:10 SW 16   Clear   61 27     27%     29.9        
Apr 19 10:00 SW 15   Clear   62 26     25%     29.89        
Apr 19 09:50 SW 15   Clear   62 25     24%     29.89        
Apr 19 09:40 WSW 10   Clear   62 26     25%     29.88        
Apr 19 09:30 SSW 11   Clear   62 24     24%              
Apr 19 09:20 SW 9   Clear   61 24     24%     29.88        
Apr 19 09:10 SW 9   Clear   60 23     24%     29.88        
Apr 19 09:00 SSW 7   Clear   59 22     24%     29.89        
Apr 19 08:50 SSW 12   Clear   59 23     25%     29.89        
Apr 19 08:20 SW 15   Clear   57 24     28%     29.89        
Apr 19 08:10 SSW 17   Clear   56 26     31%     29.88        
Apr 19 08:00     Clear   56 27     33%     29.87        
Apr 19 07:50     Clear   55 27     34%     29.86        
Apr 19 07:40 SSW 15   Clear   54 27     35%     29.89        
Apr 19 07:30 SSW 10   Clear   54 28     36%     29.89        
Apr 19 07:20 WSW 10   Clear   55 28     35%     29.89        
Apr 19 07:10 SW 12   Clear   54 27     35%     29.89        
Apr 19 06:50 SW 13   Clear   54 26     34%     29.88        
Apr 19 06:40 SW 14   Clear   54 26     34%     29.86        
Apr 19 06:30 SSW 12   Clear   54 28     37%     29.85        
Apr 19 06:20 S 13   Clear   54 29     38%     29.85        
Apr 19 06:10     Clear   54 29     39%     29.84        
Apr 19 06:00     Clear   54 29     38%     29.83        
Apr 19 05:50     Clear   54 30     39%     29.83        
Apr 19 05:40     Clear   54 30     39%     29.82        
Apr 19 05:30     Clear   54 30     40%     29.82        
Apr 19 05:20     Clear   54 30     40%     29.82        
Apr 19 05:10     Clear   54 32     42%     29.82        
Apr 19 05:00     Clear   54 32     42%     29.83        
Apr 19 04:20     Clear   56 24     29%     29.82        
Apr 19 04:10     Clear   57 21     25%     29.82        
Apr 19 04:00     Clear   57 20     23%     29.82        
Apr 19 03:50     Clear   58 18     21%     29.83        
Apr 19 03:40     Clear   58 17     20%     29.83        
Apr 19 03:30     Clear   58 17     20%     29.84        
Apr 19 03:20     Clear   59 18     20%     29.83        
Apr 19 03:10     Clear   59 20     22%     29.83        
Apr 19 03:00     Clear   59 21     23%     29.83        
Apr 19 02:50     Clear   59 22     24%     29.82        
Apr 19 02:40     Clear   59 23     25%     29.82        
Apr 19 02:30     Clear   59 24     26%              
Apr 19 02:00 SW 18   Clear   60 30     32%     29.82        
Apr 19 01:50     Clear   60 28     30%     29.82        
Apr 19 01:40     Clear   60 28     29%     29.82        
Apr 19 01:30     Clear   61 28     28%     29.83        
Apr 19 01:20     Clear   62 25     25%     29.82        
Apr 19 01:10     Clear   62 25     24%     29.82        
Apr 19 01:00 S 14   Clear   62 22     21%              
Apr 19 00:50 SSW 15   Clear   62 23     22%              
Apr 19 00:40 S 13   Clear   62 23     22%     29.83        
Apr 19 00:30     Clear   63 22     21%     29.83        
Apr 19 00:20     Clear   64        %     29.83        
Apr 19 00:10 S 15   Clear   64 16     15%              
Apr 19 00:00     Clear   64 14     14%     29.82        
Apr 18 23:50     Clear   64 17     16%              
Apr 18 23:40     Clear   65 14     14%     29.84        
Apr 18 23:30     Clear   65 14     14%     29.84        
Apr 18 23:20     Clear   65 13     13%     29.84        
Apr 18 23:10     Clear   66 14     13%     29.84        
Apr 18 23:00     Clear   66 17     15%     29.84        
Apr 18 22:50     Clear   66 21     18%     29.84        
Apr 18 22:40     Clear   66 24     20%     29.84        
Apr 18 22:30     Clear   67 26     22%     29.84        
Apr 18 22:20     Clear   67 28     23%     29.84        
Apr 18 22:00     Clear   67 33     28%     29.84        
Apr 18 21:50     Clear   67 33     28%     29.85        
Apr 18 21:40 S 14   Clear   67 34     29%     29.85        
Apr 18 21:30 S 14   Clear   67 33     28%     29.85        
Apr 18 21:20 S 13   Clear   67 34     29%     29.85        
Apr 18 21:10 S 13   Clear   68 34     29%     29.85        
Apr 18 21:00 SSW 14   Clear   68 35     29%     29.86        
Apr 18 20:30 SSW 11   Clear   70 35     28%     29.86        
Apr 18 20:20 S 10   Clear   70 36     28%   68 29.86        
Apr 18 20:10 S 5   Clear   71 36     28%   69 29.86        
Apr 18 20:00 SSW 10   Clear   72 36     27%   70 29.85        
Apr 18 19:50 SSW 7   Clear   73 36     26%   71 29.85        
Apr 18 19:40 SE 3   Clear   73 29     19%   71 29.85        
Apr 18 19:30 ENE 6   Clear   73 21     14%   71 29.84        
Apr 18 19:20 E 6   Clear   73 21     14%   71 29.84        
Apr 18 19:10 E 6   Clear   73 20     13%   71 29.85        
Apr 18 19:00 E 7   Clear   74 20     13%   71 29.85        
Apr 18 18:50 ENE 6   Clear   74 20     13%   72 29.85        
Apr 18 18:40 ENE 5   Clear   74 20     13%   72 29.85        
Apr 18 18:30 ENE 8   Clear   75 21     13%   72 29.85        
Apr 18 18:20 NE 8   Clear   75 19     12%   73 29.85        
Apr 18 18:10 ENE 7   Clear   76 20     12%   74 29.85        
Apr 18 18:00 NE 7   Clear   76 20     12%   74 29.85        
Apr 18 17:50 ENE 6   Clear   77 20     12%   75 29.86        
Apr 18 17:40 ENE 6   Clear   77 18     11%   75 29.86        
Apr 18 17:30 ENE 7   Clear   77 19     11%   75 29.86        
Apr 18 17:20 NE 10   Clear   77 19     11%   75 29.86        
Apr 18 17:10 NE 9   Clear   78 19     11%   76 29.87        
Apr 18 17:00 NE 8   Clear   78 19     11%   76 29.88        
Apr 18 16:50 NE 10   Clear   78        %     29.88        
Apr 18 16:40 NE 6   Clear   78 17     10%   76 29.89        
Apr 18 16:30 ENE 6   Clear   78 17     10%   76 29.89        
Apr 18 16:20 ENE 7   Clear   78 17     10%   76 29.89        
Apr 18 16:10 ENE 7   Clear   78 17     10%   76 29.89        
Apr 18 16:00 ENE 8   Clear   78 17     10%   76 29.89        
Apr 18 15:50 ENE 9   Clear   78 17     10%   76 29.9        
Apr 18 15:40 NE 8   Clear   77 17     10%   75 29.9        
Apr 18 15:30 NE 11   Clear   77 16     10%   75 29.9        
Apr 18 15:20 ENE 8   Clear   78 17     10%   75 29.91        
Apr 18 15:10 NE 10   Clear   78 17     10%   76 29.91        
Apr 18 15:00 NNE 8   Clear   78 17     10%   76 29.92        
Apr 18 14:50 ENE 10   Clear   78 17     10%   75 29.92        
Apr 18 14:40 ENE 8   Clear   78 17     10%   76 29.92        
Apr 18 14:30 NE 10   Clear   78 17     10%   76 29.93        
Apr 18 14:20 NE 10   Clear   78 17     10%   76 29.93        
Apr 18 14:10 NNE 12   Clear   78 17     10%   75 29.94        
Apr 18 14:00 NE 9   Clear   78 17     10%   75 29.94        
Apr 18 13:50 ENE 8   Clear   77 16     10%   75 29.95        
Apr 18 13:40 NE 9   Clear   76 16     10%   74 29.95        
Apr 18 13:30 NE 10   Clear   77 16     10%   75 29.96        
Apr 18 13:20 NE 7   Clear   77 16     10%   75 29.96        
Apr 18 13:10 NE 9   Clear   77 16     10%   74 29.96        
Apr 18 13:00 NE 9   Clear   76 16     10%   74 29.96        
Apr 18 12:50 NE 8   Clear   76 16     10%   74 29.97        
Apr 18 12:40 ENE 8   Clear   76 16     10%   74 29.98        
Apr 18 12:30 NE 8   Clear   75 15     10%   73 29.98        
Apr 18 12:20 NE 9   Clear   76 16     10%   74 29.99        
Apr 18 12:10 NE 8   Clear   76 15     10%   73 29.99        
Apr 18 12:00 NE 7   Clear   76 15     10%   73 29.99        
Apr 18 11:50 NE 5   Clear   74 14     10%   72 29.99        
Apr 18 11:40 NE 5   Clear   76 15     10%   73 29.99        
Apr 18 11:30 ENE 6   Clear   74 14     10%   72 29.99        
Apr 18 11:20 NE 8   Clear   74 14     10%   72 30        
Apr 18 11:10 NNE 7   Clear   74 14     10%   72 30        
Apr 18 11:00 NE 6   Clear   74 14     10%   72 30        
Apr 18 10:50 N 5   Clear   74 16     11%   72 30.01        
Apr 18 10:40 N 6   Clear   73 15     11%   71 30        
Apr 18 10:30 N 4   Clear   72 15     11%   70 30.01        
Apr 18 10:20 NNW 5   Clear   72 15     11%   69 30.01        
Apr 18 10:10 N 5   Clear   72 14     11%   69 30.01        
Apr 18 10:00 N 5   Clear   71 16     12%   68 30.01        
Apr 18 09:50 N 5   Clear   70 15     12%   68 30.01        
Apr 18 09:40 N 6   Clear   70 15     12%   67 30.01        
Apr 18 09:30 N 5   Clear   70 15     12%     30        
Apr 18 09:20 N 4   Clear   69 14     12%     30        
Apr 18 09:10 N 4   Clear   69 14     12%     30        
Apr 18 09:00 N 4   Clear   69 14     12%     30        
Apr 18 08:50 N 3   Clear   69 16     13%     30        
Apr 18 08:40 N 3   Clear   69 18     14%     30.01        
Apr 18 08:30 N 3   Clear   69 14     12%     30        
Apr 18 08:20 NNE 3   Clear   69 15     12%     30        
Apr 18 08:10 ENE 2   Clear   70 13     11%   67 30        
Apr 18 08:00 SE 1   Clear   69 15     12%     30        
Apr 18 07:50 SW 3   Clear   67 13     12%     30        
Apr 18 07:40 SW 6   Clear   66 12     12%     30        
Apr 18 07:30 SSW 6   Clear   65 12     12%     30        
Apr 18 07:20 SSW 7   Clear   65 13     13%     30        
Apr 18 07:10 S 7   Clear   63 11     13%     30        
Apr 18 07:00 SSW 9   Clear   62 12     14%     29.99        
Apr 18 06:50 SSW 10   Clear   62 12     14%     29.99        
Apr 18 06:40 SSW 10   Clear   62 12     14%     29.99        
Apr 18 06:30 SSW 12   Clear   61 12     14%     29.99        
Apr 18 06:20 SSW 12   Clear   61 12     14%     29.99        
Apr 18 06:10 SSW 11   Clear   61 12     14%     29.99        
Apr 18 06:00 SSW 11   Clear   61 12     14%     29.99        
Apr 18 05:50 SSW 10   Clear   61 12     14%     29.99        
Apr 18 05:40 SSW 11   Clear   61 12     14%     29.99        
Apr 18 05:30 SSW 10   Clear   61 12     14%     29.99        
Apr 18 05:20 SSW 12   Clear   61 12     14%     29.99        
Apr 18 05:10 SW 11   Clear   61 12     14%     29.99        
Apr 18 05:00 SW 10   Clear   61 12     14%     29.99        
Apr 18 04:50 SW 10   Clear   62 12     14%     29.99        
Apr 18 04:40 SSW 10   Clear   62 12     14%     29.99        
Apr 18 04:30 SSW 11   Clear   62 12     14%     29.99        
Apr 18 04:20 SSW 13   Clear   62 12     14%     29.99        
Apr 18 04:10 SSW 13   Clear   62 10     13%     29.99        
Apr 18 04:00 SSW 13   Clear   62 10     13%     29.99        
Apr 18 03:50 SSW 12   Clear   62 10     13%     29.99        
Apr 18 03:40 SSW 12   Clear   62 10     13%     29.99        
Apr 18 03:30 SSW 13   Clear   62 10     13%     30        
Apr 18 03:20 SW 12   Clear   62 10     13%     30        
Apr 18 03:10 SW 11   Clear   61 10     13%     30        
Apr 18 03:00 SW 10   Clear   62 10     13%     30        
Apr 18 02:50 SW 11   Clear   62 9     12%     30        
Apr 18 02:40 SW 12   Clear   62 9     12%     29.99        
Apr 18 02:30 SW 10   Clear   62 9     12%     30        
Apr 18 02:20 SW 11   Clear   62 9     12%     29.99        
Apr 18 02:10 SW 12   Clear   62 9     12%     29.99        
Apr 18 02:00 SW 12   Clear   62 9     12%     30        
Apr 18 01:50 SW 11   Clear   62 9     12%     30        
Apr 18 01:40 SW 11   Clear   62 9     12%     30.01        
Apr 18 01:30 SSW 11   Clear   62 9     12%     30.01        
Apr 18 01:20 SSW 11   Clear   62 9     12%     30        
Apr 18 01:10 SSW 10   Clear   62 9     12%     30        
Apr 18 01:00 SW 10   Clear   62 9     12%     30.01        
Apr 18 00:50 SW 11   Clear   62 9     12%     30.01        
Apr 18 00:40 SW 10   Clear   63 9     12%     30.01        
Apr 18 00:30 SW 10   Clear   63 9     12%     30.01        
Apr 18 00:20 SW 10   Clear   63 10     12%     30.01        
Apr 18 00:10 SW 10   Clear   63 10     12%     30.01        
Apr 18 00:00 SSW 11   Clear   63 10     12%     30.01        
Apr 17 23:50 SW 12   Clear   63 10     12%     30.01        
Apr 17 23:40 SW 11   Clear   63 10     12%     30.01        
Apr 17 23:30 SSW 12   Clear   64 10     12%     30.01        
Apr 17 23:20 SSW 12   Clear   64 10     12%     30.01        
Apr 17 23:10 SSW 12   Clear   64 10     12%     30.01        
Apr 17 23:00 SSW 12   Clear   64 10     12%     30.01        
Apr 17 22:50 SSW 14   Clear   64 10     12%     30.01        
Apr 17 22:40 SSW 12   Clear   64 11     12%     30.01        
Apr 17 22:30 SSW 12   Clear   65 11     12%     30.01        
Apr 17 22:20 SW 11   Clear   65 11     12%     30.02        
Apr 17 22:10 SW 9   Clear   65 11     12%     30.02        
Apr 17 22:00 SSW 9   Clear   65 11     12%     30.02        
Apr 17 21:20 SSW 6   Clear   67 10     11%     30.01        
Apr 17 21:10 SSW 5   Clear   67 11     11%     30.01        
Apr 17 21:00 SW 5   Clear   68 9     10%     30.01        
Apr 17 20:50 SW 3   Clear   68 11     11%     30        
Apr 17 20:40 W 1   Clear   68 12     11%     30        
Apr 17 20:30 WSW 2   Clear   69 12     11%     29.99        
Apr 17 20:20 SW 4   Clear   69 12     11%     29.99        
Apr 17 20:10 SW 3   Clear   69 12     11%     29.99        
Apr 17 20:00 SSW 3   Clear   69 12     11%     29.99        
Apr 17 19:50 SSW 4   Clear   69 12     11%     29.99        
Apr 17 19:40 SW 3   Clear   69 13     11%     29.99        
Apr 17 19:30 SSW 4   Clear   69 13     11%     29.99        
Apr 17 19:20 SSW 5   Clear   70 13     11%     29.99        
Apr 17 19:10 S 4   Clear   70 13     11%     29.99        
Apr 17 19:00 SSW 3   Clear   70 11     10%     29.99        
Apr 17 18:50 WSW 1   Clear   70 11     10%   67 29.99        
Apr 17 18:40 SW 1   Clear   70 11     10%   68 30        
Apr 17 18:30 SSW 3   Clear   70 11     10%   68 30        
Apr 17 18:20 SSW 3   Clear   71 12     10%   68 30        
Apr 17 18:10 WSW 3   Clear   73 13     10%   70 30.01        
Apr 17 18:00 NW 2   Clear   74 11     9%   71 30.01        
Apr 17 17:50 NNW 2   Clear   73 13     10%   70 30.01